Muncie, IN

9:02 AM EDT on September 19, 2017 (GMT -0400)
Delaware County-Johnson

Weather History for KMIE - January, 2014

Change the Weather History Date:

Friday, January 10, 2014

  Actual Average Record
Temperature  
Mean Temperature 39 °F 26 °F  
Max Temperature 45 °F 34 °F 57 °F (1975)
Min Temperature 32 °F 19 °F -19 °F (1982)
Degree Days  
Heating Degree Days 26 39  
Month to date heating degree days 393 381  
Since 1 July heating degree days 2733 2579  
Cooling Degree Days 0 0  
Month to date cooling degree days 0 0  
Year to date cooling degree days 0 0  
Moisture  
Dew Point 37 °F    
Average Humidity 93    
Maximum Humidity 100    
Minimum Humidity 85    
Precipitation  
Precipitation 0.19 in 0.08 in 0.50 in (1977)
Month to date precipitation 0.33 0.78  
Year to date precipitation 0.33 0.78  
Sea Level Pressure  
Sea Level Pressure 29.98 in    
Wind  
Wind Speed 10 mph (South)    
Max Wind Speed 16 mph    
Max Gust Speed 25 mph    
Visibility 4 miles    
Events Fog , Rain    
T = Trace of Precipitation, MM = Missing Value Source: NWS Daily Summary

Daily Weather History Graph

Daily Weather History Graph

Search for Another Location

Airport or City:

Trip Planner

Search our weather history database for the weather conditions in past years. The results will help you decide how hot, cold, wet, or windy it might be!

Date:

Astronomy

Jan. 10, 2014 Rise Set
Actual Time 8:03 AM EST 5:34 PM EST
Civil Twilight 7:33 AM EST 6:05 PM EST
Nautical Twilight 6:59 AM EST 6:38 PM EST
Astronomical Twilight 6:27 AM EST 7:11 PM EST
Moon 1:38 PM EST (1/10) 3:10 AM EST (1/10)
Length of Visible Light 10h 31m
Length of Day
9h 31m
Waxing Gibbous, 75% of the Moon is Illuminated
Jan 10
Waxing Gibbous
Jan 15
Full
Jan 24
Last Quarter
Jan 30
New
Feb 6
First Quarter

Hourly Weather History & Observations

Time (EST) Temp. Windchill Dew Point Humidity Pressure Visibility Wind Dir Wind Speed Gust Speed Precip Events Conditions
12:53 AM 32.0 °F 23.0 °F 30.0 °F 92% 30.23 in 5.0 mi SSW 11.5 mph - N/A   Overcast
1:53 AM 33.1 °F 25.5 °F 30.9 °F 92% 30.22 in 4.0 mi SSW 9.2 mph - N/A   Overcast
2:53 AM 33.1 °F 25.5 °F 30.9 °F 92% 30.22 in 8.0 mi South 9.2 mph - 0.00 in   Overcast
3:53 AM 33.1 °F 26.1 °F 32.0 °F 96% 30.20 in 3.0 mi South 8.1 mph - N/A   Overcast
4:53 AM 33.1 °F 26.9 °F 32.0 °F 96% 30.18 in 2.5 mi South 6.9 mph - N/A   Overcast
5:06 AM 33.1 °F 26.9 °F 32.0 °F 96% 30.16 in 2.5 mi South 6.9 mph - N/A   Overcast
5:20 AM 34.0 °F 26.6 °F 32.0 °F 92% 30.15 in 3.0 mi South 9.2 mph - N/A   Overcast
5:53 AM 34.0 °F 28.8 °F 33.1 °F 96% 30.17 in 4.0 mi South 5.8 mph - N/A   Overcast
6:25 AM 35.1 °F 28.6 °F 33.1 °F 92% 30.15 in 5.0 mi SSW 8.1 mph - N/A   Overcast
6:53 AM 35.1 °F 29.3 °F 33.1 °F 92% 30.16 in 5.0 mi SSW 6.9 mph - N/A   Overcast
7:34 AM 35.1 °F 29.3 °F 33.1 °F 92% 30.14 in 5.0 mi South 6.9 mph - N/A   Overcast
7:53 AM 35.1 °F 30.1 °F 33.1 °F 92% 30.16 in 6.0 mi South 5.8 mph - N/A   Overcast
8:35 AM 35.1 °F 27.4 °F 33.1 °F 92% 30.15 in 4.0 mi South 10.4 mph - N/A   Overcast
8:51 AM 35.6 °F 28.0 °F 33.8 °F 93% 30.15 in 2.0 mi South 10.4 mph - N/A   Overcast
8:53 AM 35.1 °F 29.3 °F 33.1 °F 92% 30.17 in 1.8 mi South 6.9 mph - N/A   Overcast
9:53 AM 36.0 °F 28.5 °F 35.1 °F 97% 30.16 in 1.2 mi South 10.4 mph - N/A   Overcast
10:04 AM 36.0 °F 29.0 °F 35.1 °F 97% 30.14 in 2.0 mi South 9.2 mph - N/A   Overcast
10:12 AM 36.0 °F 28.5 °F 34.0 °F 93% 30.14 in 2.0 mi South 10.4 mph - N/A   Overcast
10:22 AM 36.0 °F 30.3 °F 34.0 °F 93% 30.14 in 3.0 mi South 6.9 mph - N/A   Overcast
10:53 AM 37.0 °F 29.8 °F 34.0 °F 89% 30.14 in 5.0 mi South 10.4 mph - N/A   Overcast
11:25 AM 37.9 °F 32.1 °F 35.1 °F 89% 30.11 in 6.0 mi South 8.1 mph - N/A   Overcast
11:38 AM 37.9 °F 31.5 °F 35.1 °F 89% 30.10 in 6.0 mi South 9.2 mph - N/A   Overcast
11:53 AM 39.0 °F 33.4 °F 35.1 °F 86% 30.10 in 6.0 mi South 8.1 mph - N/A   Overcast
12:22 PM 39.0 °F 32.8 °F 36.0 °F 89% 30.06 in 6.0 mi South 9.2 mph - N/A   Overcast
12:53 PM 39.9 °F 34.5 °F 36.0 °F 86% 30.04 in 7.0 mi South 8.1 mph - N/A   Overcast
1:14 PM 39.9 °F 33.9 °F 37.0 °F 89% 30.01 in 6.0 mi South 9.2 mph - N/A   Overcast
1:23 PM 39.9 °F 32.5 °F 37.0 °F 89% 30.01 in 6.0 mi South 12.7 mph 18.4 mph N/A   Overcast
1:37 PM 39.9 °F 32.5 °F 37.0 °F 89% 29.99 in 6.0 mi SSE 12.7 mph - N/A   Overcast
1:53 PM 39.9 °F 32.5 °F 37.0 °F 89% 29.99 in 6.0 mi SSE 12.7 mph - N/A   Overcast
2:03 PM 39.9 °F 32.9 °F 37.0 °F 89% 29.97 in 6.0 mi SSE 11.5 mph - N/A   Overcast
2:35 PM 39.9 °F 34.5 °F 37.0 °F 89% 29.95 in 7.0 mi SSE 8.1 mph 18.4 mph N/A   Overcast
2:46 PM 39.9 °F 32.5 °F 37.0 °F 89% 29.94 in 7.0 mi SSE 12.7 mph - N/A   Mostly Cloudy
2:53 PM 41.0 °F 33.9 °F 37.9 °F 89% 29.94 in 7.0 mi SSE 12.7 mph - N/A   Scattered Clouds
3:53 PM 41.0 °F 34.3 °F 37.9 °F 89% 29.92 in 7.0 mi South 11.5 mph - N/A   Mostly Cloudy
4:49 PM 41.0 °F 33.9 °F 39.2 °F 93% 29.88 in 4.0 mi South 12.7 mph - N/A   Overcast
4:53 PM 41.0 °F 34.7 °F 39.0 °F 93% 29.89 in 4.0 mi SSE 10.4 mph - N/A   Overcast
5:22 PM 41.0 °F 33.9 °F 39.0 °F 93% 29.87 in 1.8 mi South 12.7 mph - N/A   Overcast
5:39 PM 39.9 °F 32.1 °F 39.0 °F 97% 29.87 in 0.8 mi South 13.8 mph - N/A   Overcast
5:53 PM 39.9 °F 32.9 °F 39.0 °F 97% 29.87 in 0.5 mi South 11.5 mph - 0.00 in Fog , Rain Light Rain
6:53 PM 39.9 °F 32.9 °F 39.0 °F 97% 29.84 in 3.0 mi South 11.5 mph - 0.02 in Rain Light Rain
7:10 PM 39.9 °F 32.9 °F 39.0 °F 97% 29.84 in 2.0 mi South 11.5 mph - 0.03 in Rain Rain
7:25 PM 39.9 °F 33.4 °F 39.0 °F 97% 29.84 in 3.0 mi South 10.4 mph - 0.06 in Rain Light Rain
7:53 PM 39.9 °F 33.9 °F 39.0 °F 97% 29.83 in 3.0 mi South 9.2 mph - 0.09 in Rain Light Rain
8:10 PM 39.9 °F 35.1 °F 39.0 °F 97% 29.81 in 2.0 mi SSE 6.9 mph - 0.01 in Rain Light Rain
8:21 PM 39.9 °F 35.1 °F 39.9 °F 100% 29.79 in 1.8 mi South 6.9 mph - 0.02 in Rain Light Rain
8:53 PM 41.0 °F 36.4 °F 39.9 °F 96% 29.79 in 1.8 mi South 6.9 mph - 0.04 in Rain Light Rain
9:33 PM 41.0 °F 34.7 °F 41.0 °F 100% 29.75 in 2.0 mi SSE 10.4 mph - 0.01 in Rain Light Rain
9:53 PM 42.1 °F 35.7 °F 41.0 °F 96% 29.72 in 4.0 mi SSE 11.5 mph - 0.02 in Rain Light Rain
10:44 PM 44.1 °F 37.4 °F 42.1 °F 93% 29.69 in 6.0 mi South 13.8 mph 21.9 mph 0.01 in Rain Light Rain
10:53 PM 44.1 °F 37.4 °F 43.0 °F 96% 29.69 in 7.0 mi South 13.8 mph 23.0 mph 0.01 in Rain Light Rain
11:02 PM 44.1 °F 37.4 °F 43.0 °F 96% 29.68 in 6.0 mi South 13.8 mph - 0.00 in Rain Light Rain
11:29 PM 44.1 °F 37.4 °F 43.0 °F 96% 29.66 in 8.0 mi South 13.8 mph - 0.01 in Rain Light Rain
11:45 PM 44.1 °F 38.1 °F 43.0 °F 96% 29.67 in 7.0 mi South 11.5 mph 20.7 mph 0.01 in Rain Light Rain
11:53 PM 44.1 °F 37.7 °F 43.0 °F 96% 29.67 in 8.0 mi SSW 12.7 mph 20.7 mph 0.01 in Rain Light Rain